OLC Logo
SegelflugszeneGlidingParaHangGliding ModelGliding
FAI Affiliate Member
Servicede Deutsch MoreLanguages
  • Weltweit
  • -----------
  • Afrika
  • Asien
  • Australien / Ozeanien
  • Europa
  • Nordamerika
  • Südamerika
Alle Flüge Livno (BA) 2016
( Kroatien / Bosnien-Herzegowina , olcp )
133 items found, displaying 1 - 50
Datum Punkte Name km km/h Club Flugzeug Start Ende Info
2016-08-26 409,67 Hans Fitterer (DE) smiley 421,60 91,28 LSC Schliersee Antares 20m 10:30 15:29 info
2016-08-26 321,44 Wolfgang Huber (DE) smiley 320,44 81,47 LSC Schliersee Discus 11:06 15:24 info
2016-08-25 391,37 Wolfgang Huber (DE) smiley 413,99 93,90 LSC Schliersee Discus 10:50 15:41 info
2016-08-25 367,51 Hans Fitterer (DE) smiley 407,62 103,89 LSC Schliersee Antares 20m 10:19 15:06 info
2016-08-25 320,53 Janika Scheglmann (DE) 310,07 73,79 LSC Schliersee Std. Libelle 10:37 15:23 info
2016-08-24 578,97 Alexander Friedl (DE) smiley 618,47 112,80 LSC Schliersee Discus 2T/18m 11:19 16:53 info
2016-08-24 571,35 Hans Fitterer (DE) smiley 629,61 113,64 LSC Schliersee Antares 20m 10:54 16:54 info
2016-08-24 369,99 Wolfgang Huber (DE) smiley 359,46 74,20 LSC Schliersee Discus 11:09 16:48 info
2016-08-24 301,06 Janika Scheglmann (DE) 277,37 65,94 LSC Schliersee Std. Libelle 11:23 16:23 info
2016-08-21 527,65 Alexander Friedl (DE) smiley 481,02 88,94 LSC Schliersee Discus 2T/18m 10:14 15:47 info
2016-08-21 506,81 Hans Fitterer (DE) smiley 539,18 111,40 LSC Schliersee Antares 20m 09:40 15:01 info
2016-08-21 421,39 Wolfgang Huber (DE) smiley 407,48 80,39 LSC Schliersee Discus 09:59 15:26 info
2016-08-21 345,41 Janika Scheglmann (DE) 291,61 66,55 LSC Schliersee Std. Libelle 10:20 15:06 info
2016-08-21 151,16 Edvard Kristo (BA) 123,50 71,94 AK Livno DG 100 13:59 15:50 info
2016-08-21 105,80 Sasa Mihajlovic (HR) 77,82 35,43 Aeroklub Zagreb Pilatus B4 RG 12:27 14:59 info
2016-08-20 689,01 Hans Fitterer (DE) smiley 794,75 109,87 LSC Schliersee Antares 20m 09:46 17:26 info
2016-08-20 660,75 Alexander Friedl (DE) smiley 733,48 110,92 LSC Schliersee Discus 2T/18m 10:02 16:46 info
2016-08-20 549,37 Wolfgang Huber (DE) smiley 562,67 85,40 LSC Schliersee Discus 09:49 16:42 info
2016-08-20 521,93 Janika Scheglmann (DE) 484,82 86,88 LSC Schliersee Std. Libelle 10:08 16:30 info
2016-08-20 494,44 Andreas Bucher (DE) smiley 533,70 101,21 LSC Schliersee Kestrel 17m 10:22 15:50 info
2016-08-20 209,28 Sasa Mihajlovic (HR) 133,44 28,98 Aeroklub Zagreb Bergfalke II 10:25 16:22 info
2016-08-20 64,61 jozo čečura (BA) 44,46 26,69 AK Livno Bergfalke II 13:52 15:44 info
2016-08-16 489,58 Alexander Friedl (DE) smiley 504,95 91,44 LSC Schliersee Discus 2T/18m 10:07 15:50 info
2016-08-16 421,23 Hans Fitterer (DE) smiley 472,40 111,09 LSC Schliersee Antares 20m 10:06 14:39 info
2016-08-16 360,78 Wolfgang Huber (DE) smiley 344,53 86,30 LSC Schliersee Discus 10:18 14:30 info
2016-08-16 290,28 Janika Scheglmann (DE) 256,35 70,67 LSC Schliersee Std. Libelle 10:24 14:17 info
2016-08-15 528,69 Hans Fitterer (DE) smiley 604,43 113,57 LSC Schliersee Antares 20m 11:28 17:06 info
2016-08-15 495,70 Alexander Friedl (DE) smiley 518,60 100,79 LSC Schliersee Discus 2T/18m 11:51 17:09 info
2016-08-15 447,67 Wolfgang Huber (DE) smiley 454,05 106,53 LSC Schliersee Discus 12:06 16:43 info
2016-08-15 421,58 Andreas Bucher (DE) smiley 431,48 99,24 LSC Schliersee Kestrel 17m 11:58 16:31 info
2016-08-15 379,06 Janika Scheglmann (DE) 347,11 88,98 LSC Schliersee Std. Libelle 12:10 16:26 info
2016-08-14 186,17 Hans Fitterer (DE) smiley 188,84 42,13 LSC Schliersee Antares 20m 10:44 15:55 info
2016-08-13 460,21 Hans Fitterer (DE) smiley 503,45 88,27 LSC Schliersee Antares 20m 10:03 16:09 info
2016-08-13 456,96 Alexander Friedl (DE) smiley 451,14 84,57 LSC Schliersee Discus 2/18m 10:22 15:53 info
2016-08-13 279,50 Wolfgang Huber (DE) smiley 267,05 65,78 LSC Schliersee Discus 10:30 15:10 info
2016-08-13 251,18 Janika Scheglmann (DE) 220,57 59,85 LSC Schliersee Std. Libelle 10:37 15:14 info
2016-08-13 240,20 Andreas Bucher (DE) smiley 235,45 67,19 LSC Schliersee Kestrel 17m 10:50 14:42 info
2016-08-13 136,08 Topic Ibrahim (BA) 101,15 29,53 Aero Klub Bihac Bihac Pilatus B4 FG 12:14 16:10 info
2016-08-13 87,81 Adrian Milisic (AU) 63,48 14,76 Aeroklub Sarajevo Bergfalke III 13:22 18:18 info
2016-08-13 26,90 Topic Ibrahim (BA) 21,64 22,48 Aero Klub Bihac Bihac Pilatus B4 FG 10:55 12:02 info
2016-08-12 444,26 Hans Fitterer (DE) smiley 453,95 99,41 LSC Schliersee Antares 20m 11:22 16:39 info
2016-08-12 418,34 Alexander Friedl (DE) smiley 424,11 92,03 LSC Schliersee Discus 2T/18m 11:29 16:22 info
2016-08-12 197,39 Edvard Kristo (BA) 169,58 44,15 AK Livno DG 100 11:46 16:15 info
2016-08-12 151,31 Adrian Milisic (AU) 104,81 24,33 Aeroklub Sarajevo Bergfalke III 12:04 17:48 info
2016-08-10 409,25 Ales Krusic (SI) 456,58 94,10 AK Edvard Rusjan Ventus 2cM/18m 10:39 15:41 info
2016-08-10 320,99 Sandi Kavalic (SI) 302,85 68,01 AK Postojna DG 100 10:40 15:29 info
2016-08-09 353,70 Edvard Kristo (BA) 316,45 91,21 AK Livno DG 100 11:40 15:15 info
2016-08-09 345,22 Ales Krusic (SI) 386,21 86,25 AK Edvard Rusjan Ventus 2cM/18m 10:27 15:07 info
2016-08-09 325,52 Sandi Kavalic (SI) 300,36 73,77 AK Postojna DG 100 10:34 14:55 info
2016-08-08 339,21 Edvard Kristo (BA) 316,28 62,53 AK Livno DG 100 09:51 15:22 info
133 items found, displaying 1 - 50

Quick-Links
directclaim Service
Letzte News
22. Juni

NEW: The time has finally come - OLC is presenting Distance Records

OLC Liga-Finale 2017
7. Oktober um 13.00 Uhr
Poppenhausen
Jubel-Event für die Sieger
Platin Sponsoren
Platin SponsorenPeter H. BraaschBürklinaerokurier
Gold Sponsoren
Gold SponsorenILECDG FlugzeugbauAlexander SchleicherSCHEMPP-HIRTH Flugzeugbau GmbHFLARMTQ AvionicsCobra TrailernavITerTopMeteoLXNAVbinderHPHLANGE Aviation GmbHJonker SailplanesAir AvionicsBitterwasserM+D FlugzeugbauFliegerstromDeutscher WetterdienstOLC Sponsor werden?
Silber Sponsoren
Silber SponsorenTostSiebertWINTER InstrumentsClouddancersSegelflugschule WasserkuppeRent a GliderIMI GlidingMilvus
Bronze Sponsoren
Bronze SponsorenFLIGHT TEAMOLC Sponsor werden?
OLC Partner
OLC PartnerDEUTSCHER AERO-CLUB E.V.Segelflugverband der SchweizSoaring Association of CanadaSoaring Society of AmericaGliding Federation of AustraliaKoninklijke Nederlandse Vereniging voor Luchtvaartconono GmbHFAIBarronHiltonCupOLC Sponsor werden?